FW2178 Weather Reports


Display with metric or nautical units.
time (UTC)temp
F
wind
direction
speed
MPH
gust
MPH
rain 1hr
in
rain 24hr
in
rain mn
in
humidity
%
barometer
mb
20260904083636 55 130 0.0 0.0 0.00 0.05 0.00 94 1009.2
20260904083136 55 130 0.0 0.0 0.00 0.05 0.00 94 1009.4
20260904082634 55 128 0.0 0.0 0.00 0.05 0.00 93 1009.4
20260904082135 55 144 0.0 0.0 0.00 0.05 0.00 93 1009.4
20260904081636 55 144 0.0 0.0 0.00 0.05 0.00 92 1009.3
20260904081136 55 144 0.0 0.0 0.00 0.05 0.00 93 1009.2
20260904080636 55 144 0.0 0.0 0.00 0.05 0.00 93 1009.4
20260904080135 55 145 0.0 0.0 0.00 0.05 0.00 93 1009.5
20260904075635 55 145 0.0 0.0 0.00 0.05 0.00 93 1009.8
20260904075441 55 144 0.0 0.0 0.00 0.05 0.00 93 1009.7
20260904074636 55 144 0.0 0.0 0.00 0.05 0.00 93 1009.7
20260904074136 55 144 0.0 0.0 0.00 0.05 0.00 93 1009.6
20260904073636 55 144 0.0 0.0 0.00 0.05 0.00 93 1009.7
20260904073134 55 144 0.0 0.0 0.00 0.05 0.00 93 1009.5
20260904072636 55 146 0.0 0.0 0.00 0.05 0.00 92 1009.4
20260904072137 55 146 0.0 0.0 0.00 0.05 0.00 93 1009.4
20260904071636 55 146 0.0 0.0 0.00 0.05 0.00 93 1009.5
20260904071137 55 145 0.0 0.0 0.00 0.05 0.00 93 1009.4
20260904070637 55 144 0.0 0.0 0.00 0.05 0.00 93 1009.5
20260904070137 55 144 0.0 0.0 0.00 0.05 0.00 93 1009.4
20260904065636 55 144 0.0 0.0 0.00 0.05 0.05 93 1009.5
20260904065135 55 144 0.0 0.0 0.00 0.05 0.05 92 1009.5
20260904064636 55 146 0.0 0.0 0.00 0.05 0.05 91 1009.3
20260904064421 55 146 0.0 0.0 0.00 0.05 0.05 91 1009.1
20260904063925 55 146 0.0 0.0 0.00 0.05 0.05 91 1009.3
20260904063135 55 146 0.0 0.0 0.00 0.05 0.05 92 1009.3
20260904062635 55 146 0.0 0.0 0.00 0.05 0.05 92 1009.2
20260904062139 55 146 0.0 0.0 0.00 0.05 0.05 92 1009.2
20260904061638 55 146 0.0 0.0 0.00 0.05 0.05 92 1009.1
20260904061135 55 146 0.0 0.0 0.00 0.05 0.05 92 1009.2
20260904060636 55 146 0.0 0.0 0.00 0.05 0.05 93 1009.1
20260904060138 55 146 0.0 0.0 0.00 0.05 0.05 93 1009.2
20260904055921 56 146 0.0 0.0 0.00 0.05 0.05 92 1009.2
20260904055136 56 146 0.0 0.0 0.00 0.05 0.05 91 1009.3
20260904054636 56 147 0.0 0.0 0.00 0.05 0.05 90 1009.1
20260904054136 56 147 0.0 0.0 0.00 0.05 0.05 90 1009.2
20260904053636 56 147 0.0 0.0 0.00 0.05 0.05 90 1009.2
20260904053134 56 147 0.0 0.0 0.00 0.05 0.05 90 1009.3
20260904052635 55 147 0.0 0.0 0.00 0.05 0.05 89 1009.4
20260904052135 56 147 0.0 0.0 0.00 0.05 0.05 89 1009.2
20260904051635 56 147 0.0 0.0 0.00 0.05 0.05 88 1009.3
20260904051136 56 147 0.0 0.0 0.00 0.05 0.05 87 1009.1
20260904050637 56 147 0.0 0.0 0.00 0.05 0.05 87 1009.3
20260904050417 56 147 0.0 1.0 0.00 0.05 0.05 86 1009.1
20260904045636 57 147 0.0 1.0 0.00 0.05 0.05 86 1009.1
20260904045135 56 147 0.0 0.0 0.00 0.05 0.05 86 1009.2
20260904044635 57 147 0.0 0.0 0.00 0.05 0.05 86 1009.4
20260904044137 57 147 0.0 0.0 0.00 0.05 0.05 87 1009.3
20260904043922 57 147 0.0 0.0 0.00 0.05 0.05 86 1009.1
20260904043135 57 147 0.0 0.0 0.00 0.05 0.05 86 1009.1
20260904042635 57 147 0.0 0.0 0.00 0.05 0.05 86 1009.3
20260904042135 57 146 0.0 0.0 0.00 0.05 0.05 87 1009.4
20260904041639 57 146 0.0 0.0 0.00 0.05 0.05 87 1009.3
20260904041148 57 146 0.0 0.0 0.00 0.05 0.05 86 1009.3
20260904040637 57 146 0.0 0.0 0.00 0.05 0.05 87 1009.3
20260904040135 57 146 0.0 0.0 0.00 0.05 0.05 87 1009.1
20260904035637 57 146 0.0 0.0 0.00 0.05 0.05 87 1009.1
20260904035137 57 146 0.0 0.0 0.00 0.05 0.05 87 1009.2
20260904034638 57 146 0.0 0.0 0.00 0.05 0.05 86 1009.1
20260904034135 57 146 0.0 0.0 0.00 0.05 0.05 86 1009.1
20260904033933 58 146 0.0 0.0 0.00 0.05 0.05 87 1009.1
20260904033425 58 148 0.0 0.0 0.00 0.05 0.05 85 1009.0
20260904032638 58 148 0.0 0.0 0.00 0.05 0.05 84 1008.9
20260904032132 58 148 0.0 0.0 0.00 0.05 0.05 84 1008.9
20260904031919 58 148 0.0 0.0 0.00 0.05 0.05 83 1008.9
20260904031132 58 148 0.0 0.0 0.00 0.05 0.05 84 1008.5
20260904030644 58 148 0.0 0.0 0.00 0.05 0.05 85 1008.7
20260904030133 58 148 0.0 0.0 0.00 0.05 0.05 84 1008.7
20260904025631 58 148 0.0 0.0 0.00 0.05 0.05 84 1008.5
20260904025133 58 148 0.0 0.0 0.00 0.05 0.05 81 1008.5
20260904024631 58 148 0.0 0.0 0.00 0.05 0.05 85 1008.6
20260904024132 58 148 0.0 0.0 0.00 0.05 0.05 85 1008.4
20260904023632 58 148 0.0 0.0 0.00 0.05 0.05 84 1008.3
20260904023414 58 148 0.0 0.0 0.00 0.05 0.05 82 1008.2
20260904022631 58 148 0.0 0.0 0.00 0.05 0.05 84 1008.5
20260904022132 59 148 0.0 0.0 0.00 0.05 0.05 84 1008.3
20260904021632 59 148 0.0 0.0 0.00 0.05 0.05 83 1008.2
20260904021132 59 148 0.0 0.0 0.00 0.05 0.05 80 1008.2
20260904020631 59 148 0.0 0.0 0.00 0.05 0.05 79 1008.3
20260904020131 59 148 0.0 0.0 0.00 0.05 0.05 80 1008.1
20260904015922 59 148 0.0 0.0 0.00 0.05 0.05 81 1008.3
20260904015132 59 148 0.0 0.0 0.00 0.05 0.05 81 1008.3
20260904014631 60 148 0.0 0.0 0.00 0.05 0.05 82 1008.0
20260904014132 60 148 0.0 0.0 0.00 0.05 0.05 79 1008.2
20260904013633 60 148 0.0 0.0 0.00 0.05 0.05 82 1008.1
20260904013131 60 148 0.0 0.0 0.00 0.05 0.05 80 1008.4
20260904012632 60 148 0.0 0.0 0.00 0.05 0.05 80 1008.3
20260904012133 60 148 0.0 0.0 0.00 0.05 0.05 78 1008.1
20260904011632 60 148 0.0 0.0 0.00 0.05 0.05 77 1008.2
20260904011132 60 146 0.0 0.0 0.00 0.05 0.05 80 1008.4
20260904010632 60 146 0.0 0.0 0.00 0.05 0.05 77 1008.4
20260904010131 60 148 0.0 0.0 0.00 0.05 0.05 76 1008.4
20260904005632 61 149 0.0 0.0 0.00 0.05 0.05 78 1008.2
20260904005136 61 149 0.0 0.0 0.00 0.05 0.05 76 1008.0
20260904004634 61 149 0.0 0.0 0.00 0.05 0.05 76 1008.3
20260904004132 62 149 0.0 0.0 0.00 0.05 0.05 77 1008.2
20260904003632 62 149 0.0 0.0 0.00 0.05 0.05 72 1008.2
20260904003144 63 149 0.0 0.0 0.00 0.05 0.05 75 1008.1
20260904002911 63 149 0.0 0.0 0.00 0.05 0.05 74 1008.1
20260904002130 63 151 0.0 0.0 0.00 0.05 0.05 67 1008.1
20260904001632 63 129 0.0 1.0 0.00 0.05 0.05 74 1008.3
20260904001131 63 128 0.0 1.0 0.00 0.05 0.05 75 1008.1
20260904000633 63 125 0.0 2.0 0.00 0.05 0.05 70 1008.1
20260904000132 63 110 1.0 2.0 0.00 0.05 0.05 69 1008.3
20260903235632 64 117 1.0 2.0 0.00 0.05 0.05 69 1008.3
20260903235131 63 33 1.0 2.0 0.00 0.05 0.05 72 1008.2
20260903234631 63 138 0.0 0.0 0.00 0.05 0.05 77 1008.3
20260903234132 63 138 0.0 0.0 0.00 0.06 0.05 75 1008.3
20260903233632 63 138 0.0 2.0 0.00 0.06 0.05 71 1008.3
20260903233130 63 134 0.0 2.0 0.00 0.07 0.05 78 1008.3
20260903232631 63 133 0.0 1.0 0.00 0.08 0.05 80 1008.1
20260903232131 63 137 0.0 1.0 0.00 0.09 0.05 72 1008.2
20260903231631 63 140 0.0 3.0 0.00 0.10 0.05 68 1008.5
20260903231131 64 140 0.0 4.0 0.00 0.11 0.05 70 1008.2
20260903230631 63 140 0.0 4.0 0.00 0.11 0.05 68 1008.4
20260903230130 63 141 0.0 1.0 0.00 0.13 0.05 72 1008.4
20260903225632 63 141 0.0 1.0 0.00 0.14 0.05 66 1008.5
20260903225130 64 144 0.0 1.0 0.00 0.14 0.05 66 1008.4
20260903224631 63 144 0.0 1.0 0.00 0.15 0.05 66 1008.6
20260903224131 63 143 0.0 1.0 0.00 0.16 0.05 72 1008.5
20260903223632 63 144 0.0 1.0 0.00 0.17 0.05 73 1008.8
20260903223132 63 144 0.0 1.0 0.00 0.17 0.05 68 1008.7
20260903222630 63 142 0.0 1.0 0.00 0.18 0.05 70 1008.3
20260903222130 63 144 0.0 2.0 0.00 0.19 0.05 67 1008.3
20260903221631 64 142 0.0 2.0 0.00 0.19 0.05 63 1008.5
20260903221132 64 146 0.0 2.0 0.00 0.20 0.05 64 1008.1
20260903220632 65 151 0.0 2.0 0.00 0.20 0.05 62 1008.4
20260903220131 64 127 1.0 3.0 0.00 0.20 0.05 62 1008.6
20260903215631 64 123 0.0 3.0 0.00 0.20 0.05 62 1008.3
20260903215131 64 153 0.0 2.0 0.00 0.20 0.05 67 1008.5
20260903214922 63 144 0.0 2.0 0.00 0.21 0.05 64 1008.5
20260903214207 63 77 2.0 3.0 0.00 0.21 0.05 66 1008.4
20260903214154 63 127 0.0 3.0 0.00 0.21 0.05 73 1008.6
20260903213130 63 153 0.0 1.0 0.00 0.21 0.05 73 1008.3
20260903212643 63 131 0.0 2.0 0.00 0.21 0.05 71 1008.3
20260903212417 63 137 1.0 2.0 0.00 0.21 0.05 65 1008.3
20260903211632 63 164 0.0 1.0 0.00 0.21 0.05 73 1008.3
20260903211132 63 157 0.0 2.0 0.00 0.21 0.05 69 1008.4
20260903210633 63 129 1.0 4.0 0.00 0.21 0.05 66 1008.3
20260903210437 63 158 0.0 4.0 0.00 0.21 0.05 71 1008.4
20260903205633 63 161 0.0 8.0 0.00 0.21 0.05 71 1008.5
20260903205131 63 144 0.0 8.0 0.00 0.21 0.05 68 1008.2
20260903204635 63 158 0.0 7.0 0.00 0.21 0.05 73 1008.3
20260903204437 63 144 0.0 7.0 0.00 0.21 0.05 67 1008.4
20260903203631 62 156 1.0 3.0 0.00 0.22 0.05 67 1008.3
20260903203130 62 144 0.0 0.0 0.00 0.22 0.05 74 1008.4
20260903202631 62 162 0.0 0.0 0.00 0.22 0.05 68 1008.0
20260903202131 62 162 0.0 3.0 0.00 0.22 0.05 69 1008.2
20260903201630 62 142 0.0 3.0 0.00 0.22 0.05 67 1008.4
20260903201143 63 126 0.0 6.0 0.00 0.22 0.05 65 1008.3
20260903200631 63 142 1.0 6.0 0.00 0.22 0.05 66 1008.5
20260903200132 63 134 0.0 2.0 0.00 0.22 0.05 67 1008.5
20260903195631 63 146 0.0 1.0 0.00 0.22 0.05 68 1008.3
20260903195205 63 141 1.0 7.0 0.00 0.00 0.00 65 1008.3
20260903194722 63 142 0.0 7.0 0.00 0.22 0.05 63 1008.5
20260903193928 62 130 0.0 4.0 0.00 0.22 0.05 66 1008.3
20260903193611 61 153 0.0 0.0 0.00 0.22 0.05 75 1008.3
20260903193600 61 156 0.0 0.0 0.00 0.22 0.05 71 1008.4
20260903193531 62 178 0.0 2.0 0.00 0.22 0.05 73 1008.5
20260903191928 61 126 0.0 0.0 0.00 0.22 0.05 68 1008.2
20260903191431 61 152 0.0 0.0 0.00 0.22 0.05 72 1008.2
20260903191218 61 164 0.0 0.0 0.00 0.22 0.05 72 1008.3
20260903190428 62 156 0.0 0.0 0.00 0.22 0.05 69 1008.2
20260903185929 62 157 0.0 0.0 0.00 0.22 0.05 69 1007.8
20260903185428 62 151 0.0 7.0 0.00 0.22 0.05 70 1007.8
20260903184929 62 154 0.0 7.0 0.00 0.22 0.05 71 1007.8
20260903184430 61 146 0.0 2.0 0.00 0.22 0.05 76 1008.0
20260903183930 61 138 0.0 2.0 0.00 0.22 0.05 80 1007.9
20260903183429 61 149 0.0 0.0 0.00 0.22 0.05 76 1007.8
20260903183237 60 153 0.0 0.0 0.00 0.22 0.05 72 1007.8
20260903182722 59 135 0.0 0.0 0.00 0.22 0.05 74 1008.0
20260903181929 60 167 0.0 0.0 0.00 0.22 0.05 75 1007.8
20260903181430 60 159 0.0 0.0 0.00 0.22 0.05 74 1007.9
20260903180929 60 164 0.0 3.0 0.00 0.22 0.05 72 1007.7
20260903180527 60 127 0.0 1.0 0.00 0.22 0.05 76 1007.6
20260903180501 61 148 0.0 3.0 0.00 0.22 0.05 71 1007.8
20260903175429 60 167 0.0 2.0 0.00 0.22 0.05 78 1007.7
20260903175034 59 141 1.0 4.0 0.00 0.22 0.05 79 1007.6
20260903174956 60 134 1.0 2.0 0.00 0.22 0.05 76 1007.6
20260903173936 59 138 0.0 4.0 0.00 0.22 0.05 80 1007.6
20260903173429 60 146 0.0 0.0 0.00 0.22 0.05 78 1007.5
20260903172929 59 114 0.0 0.0 0.00 0.22 0.05 80 1007.6
20260903172429 59 156 0.0 3.0 0.00 0.22 0.05 87 1007.5
20260903171929 58 167 0.0 3.0 0.00 0.22 0.05 90 1007.6
20260903171429 57 137 0.0 6.0 0.00 0.22 0.05 93 1007.6
20260903171014 56 148 0.0 3.0 0.00 0.22 0.05 97 1007.5
20260903170956 56 137 0.0 6.0 0.00 0.22 0.05 96 1007.5
20260903165930 56 75 0.0 3.0 0.00 0.22 0.05 98 1007.6
20260903165429 55 165 0.0 2.0 0.00 0.22 0.05 98 1007.5
20260903164932 55 164 0.0 2.0 0.00 0.22 0.05 99 1007.5
20260903164428 56 164 0.0 3.0 0.00 0.22 0.05 99 1007.6
20260903164220 56 164 0.0 3.0 0.00 0.22 0.05 99 1007.7
20260903163432 56 164 0.0 0.0 0.00 0.22 0.05 99 1007.8
20260903162929 55 164 0.0 0.0 0.00 0.22 0.05 99 1007.7
20260903162721 55 164 0.0 0.0 0.00 0.22 0.05 99 1007.6
20260903161928 55 164 0.0 0.0 0.00 0.22 0.05 99 1007.5
20260903161429 55 164 0.0 0.0 0.00 0.22 0.05 99 1007.7
20260903161215 55 164 0.0 8.0 0.00 0.22 0.05 99 1007.7
20260903160430 54 164 0.0 14.0 0.00 0.22 0.05 99 1007.7
20260903155929 54 164 0.0 14.0 0.00 0.22 0.05 99 1007.8
20260903155428 54 164 1.0 6.0 0.00 0.22 0.05 99 1007.7
20260903154929 54 164 0.0 3.0 0.00 0.22 0.05 99 1007.5
20260903154431 54 164 0.0 0.0 0.00 0.22 0.05 99 1007.6
20260903153929 54 164 0.0 4.0 0.00 0.22 0.05 99 1007.4
20260903153429 55 164 0.0 8.0 0.00 0.22 0.05 99 1007.5
20260903152929 55 164 0.0 8.0 0.00 0.22 0.05 99 1007.7
20260903152429 54 164 0.0 4.0 0.00 0.22 0.05 99 1007.4
20260903151929 54 164 0.0 4.0 0.00 0.22 0.05 99 1007.5
20260903151429 54 164 0.0 2.0 0.00 0.22 0.05 99 1007.7
20260903150930 54 164 0.0 2.0 0.00 0.22 0.05 99 1007.4
20260903150723 54 164 0.0 7.0 0.00 0.22 0.05 99 1007.5
20260903145929 54 164 0.0 7.0 0.00 0.22 0.05 99 1007.6
20260903145429 53 164 0.0 0.0 0.00 0.22 0.05 99 1007.7
20260903144930 53 164 0.0 0.0 0.00 0.22 0.05 99 1007.5
20260903144429 53 164 0.0 0.0 0.00 0.22 0.05 99 1007.3
20260903143929 53 164 0.0 0.0 0.00 0.22 0.05 99 1007.3
20260903143430 53 164 0.0 0.0 0.00 0.22 0.05 99 1007.4
20260903142929 53 164 0.0 0.0 0.00 0.22 0.05 99 1007.3
20260903142429 53 163 0.0 0.0 0.00 0.22 0.05 99 1007.4
20260903141929 53 163 0.0 0.0 0.00 0.22 0.05 99 1007.2
20260903141429 53 163 0.0 0.0 0.00 0.22 0.05 99 1007.4
20260903140929 53 163 0.0 0.0 0.00 0.22 0.05 99 1007.2
20260903140431 53 163 0.0 0.0 0.00 0.22 0.05 99 1007.2
20260903135929 53 163 0.0 0.0 0.00 0.22 0.05 99 1007.3
20260903135429 53 163 0.0 0.0 0.00 0.22 0.05 99 1007.2
20260903134929 53 163 0.0 0.0 0.00 0.22 0.05 99 1007.4
20260903134430 53 163 0.0 0.0 0.00 0.22 0.05 99 1007.2
20260903133929 53 163 0.0 0.0 0.00 0.22 0.05 99 1007.2
20260903133428 53 163 0.0 0.0 0.00 0.22 0.05 99 1007.2
20260903132929 53 163 0.0 0.0 0.00 0.22 0.05 99 1007.0
20260903132431 53 163 0.0 0.0 0.00 0.22 0.05 99 1007.1
20260903132214 53 164 0.0 0.0 0.00 0.22 0.05 99 1006.9
20260903131559 53 164 0.0 0.0 0.00 0.22 0.05 99 1006.8
20260903131521 53 163 0.0 0.0 0.00 0.22 0.05 99 1006.8
20260903130428 53 164 0.0 0.0 0.00 0.22 0.05 99 1007.0
20260903125929 53 164 0.0 0.0 0.00 0.22 0.05 99 1007.0
20260903125435 53 163 0.0 0.0 0.01 0.22 0.05 99 1007.0
20260903124932 53 164 0.0 0.0 0.04 0.22 0.05 99 1007.0
20260903124431 53 164 0.0 0.0 0.04 0.22 0.05 99 1006.9
20260903123929 53 164 0.0 13.0 0.05 0.22 0.05 99 1006.8
20260903123554 53 164 0.0 0.0 0.05 0.22 0.05 99 1006.7
20260903123526 53 164 0.0 13.0 0.05 0.22 0.05 99 1006.8
20260903122458 53 164 0.0 0.0 0.05 0.22 0.05 99 1006.7
20260903121928 53 164 0.0 0.0 0.05 0.22 0.05 99 1006.7
20260903121442 53 164 0.0 0.0 0.05 0.22 0.05 99 1006.5
20260903120928 53 164 0.0 0.0 0.05 0.22 0.05 99 1006.6
20260903120430 53 164 0.0 0.0 0.05 0.22 0.05 99 1006.7
20260903120018 53 164 0.0 0.0 0.04 0.17 0.03 99 1006.9
20260903115957 53 164 0.0 0.0 0.05 0.17 0.05 99 1006.9
20260903115211 53 165 0.0 0.0 0.01 0.17 0.01 99 1006.7
20260903114430 53 165 0.0 0.0 0.01 0.17 0.01 99 1006.6
20260903113929 53 165 0.0 0.0 0.00 0.17 0.00 99 1006.6
20260903113455 53 165 0.0 0.0 0.00 0.17 0.00 99 1006.5
20260903112430 53 165 0.0 0.0 0.00 0.17 0.00 99 1006.4
20260903111929 53 165 0.0 0.0 0.00 0.17 0.00 99 1006.5
20260903111533 53 165 0.0 0.0 0.00 0.17 0.00 99 1006.4
20260903111509 53 165 0.0 0.0 0.00 0.17 0.00 99 1006.5
20260903110430 52 165 0.0 0.0 0.00 0.17 0.00 99 1006.4
20260903105929 52 165 0.0 0.0 0.00 0.17 0.00 99 1006.4
20260903105429 52 165 0.0 0.0 0.00 0.17 0.00 99 1006.2
20260903105213 52 165 0.0 0.0 0.00 0.17 0.00 99 1006.5
20260903104430 52 165 0.0 0.0 0.00 0.17 0.00 99 1006.3
20260903104214 52 165 0.0 0.0 0.00 0.17 0.00 99 1006.3
20260903103429 53 165 0.0 6.0 0.00 0.17 0.00 99 1006.3
20260903102929 53 165 0.0 6.0 0.00 0.17 0.00 99 1006.6
20260903102429 53 165 1.0 3.0 0.00 0.17 0.00 99 1006.4
20260903101930 53 165 0.0 0.0 0.00 0.17 0.00 99 1006.3
20260903101429 53 165 0.0 0.0 0.00 0.17 0.00 99 1006.3
20260903101013 53 165 0.0 0.0 0.00 0.17 0.00 99 1006.5
20260903100954 53 165 0.0 0.0 0.00 0.17 0.00 99 1006.2
20260903100224 53 165 0.0 0.0 0.00 0.17 0.00 99 1006.3
20260903095431 53 165 0.0 0.0 0.00 0.17 0.00 99 1006.2
20260903095232 53 165 0.0 0.0 0.00 0.17 0.00 99 1006.3
20260903094721 53 165 0.0 0.0 0.00 0.17 0.00 99 1006.2
20260903093929 53 165 0.0 0.0 0.00 0.17 0.00 99 1006.5
20260903093429 53 165 0.0 4.0 0.00 0.17 0.00 99 1006.3
20260903092929 52 165 0.0 4.0 0.00 0.17 0.00 99 1006.3
20260903092429 52 165 0.0 0.0 0.00 0.17 0.00 99 1006.2
20260903091929 52 165 0.0 0.0 0.00 0.17 0.00 99 1006.1
20260903091737 52 165 0.0 9.0 0.00 0.17 0.00 99 1006.3
20260903090929 52 165 0.0 9.0 0.00 0.17 0.00 99 1006.3
20260903090430 52 165 0.0 0.0 0.00 0.17 0.00 99 1006.2
20260903085930 52 165 0.0 0.0 0.00 0.17 0.00 99 1006.1
20260903085428 52 165 0.0 0.0 0.00 0.17 0.00 99 1006.3
20260903084928 52 165 0.0 0.0 0.00 0.17 0.00 99 1006.2
20260903084735 52 165 0.0 0.0 0.00 0.17 0.00 99 1006.1
20260903083928 52 165 0.0 0.0 0.00 0.17 0.00 99 1006.0